Time,TemperatureF,DewpointF,PressureIn,WindDirection,WindDirectionDegrees,WindSpeedMPH,WindSpeedGustMPH,Humidity,HourlyPrecipIn,Conditions,Clouds,dailyrainin,SoftwareType,DateUTC
2013-10-13 00:02:00,63.2,62.3,30.13,SSE,154,0.0,0.0,97,0.00,RA,FEW,0.00,WeatherDisplay:10.37,2013-10-13 05:02:00,
2013-10-13 00:07:00,63.1,62.2,30.13,SSE,154,0.0,0.0,97,0.00,RA,FEW,0.00,WeatherDisplay:10.37,2013-10-13 05:07:00,
2013-10-13 00:12:00,63.0,62.1,30.13,SSE,154,0.0,0.0,97,0.00,OVC,FEW,0.00,WeatherDisplay:10.37,2013-10-13 05:12:00,
2013-10-13 00:17:00,62.8,61.9,30.14,SSE,154,0.0,0.0,97,0.00,OVC,FEW,0.00,WeatherDisplay:10.37,2013-10-13 05:17:00,
2013-10-13 00:22:00,62.8,61.9,30.14,SSE,154,0.0,0.0,97,0.00,OVC,FEW,0.00,WeatherDisplay:10.37,2013-10-13 05:22:00,
2013-10-13 00:27:00,62.7,62.1,30.14,SSE,154,0.0,0.0,98,0.00,OVC,FEW,0.00,WeatherDisplay:10.37,2013-10-13 05:27:00,
2013-10-13 00:32:00,62.6,61.7,30.14,SSE,154,0.0,0.0,97,0.00,OVC,FEW,0.00,WeatherDisplay:10.37,2013-10-13 05:32:00,
2013-10-13 00:37:00,62.5,61.6,30.14,SSE,154,0.0,0.0,97,0.00,OVC,FEW,0.00,WeatherDisplay:10.37,2013-10-13 05:37:00,
2013-10-13 00:42:00,62.5,61.9,30.14,SSE,154,0.0,0.0,98,0.00,OVC,FEW,0.00,WeatherDisplay:10.37,2013-10-13 05:42:00,
2013-10-13 00:47:00,62.5,61.9,30.13,SSE,154,0.0,0.0,98,0.00,OVC,FEW,0.00,WeatherDisplay:10.37,2013-10-13 05:47:00,
2013-10-13 00:52:00,62.5,61.9,30.14,SSE,154,0.0,0.0,98,0.00,SCT,FEW,0.00,WeatherDisplay:10.37,2013-10-13 05:52:00,
2013-10-13 00:57:00,62.6,62.0,30.14,SSE,154,0.0,0.0,98,0.00,SCT,FEW,0.00,WeatherDisplay:10.37,2013-10-13 05:57:00,
2013-10-13 01:02:00,62.5,61.9,30.14,SSE,154,0.0,0.0,98,0.00,SCT,FEW,0.00,WeatherDisplay:10.37,2013-10-13 06:02:00,
2013-10-13 01:07:00,62.4,61.8,30.14,SSE,154,0.0,0.0,98,0.00,SCT,FEW,0.00,WeatherDisplay:10.37,2013-10-13 06:07:00,
2013-10-13 01:12:00,62.3,61.7,30.14,SSE,153,0.0,0.0,98,0.00,SCT,FEW,0.00,WeatherDisplay:10.37,2013-10-13 06:12:00,
2013-10-13 01:17:00,62.2,61.6,30.14,SSE,154,0.0,0.0,98,0.00,SCT,FEW,0.00,WeatherDisplay:10.37,2013-10-13 06:17:00,
2013-10-13 01:22:00,62.2,61.6,30.14,SSE,154,0.0,0.0,98,0.00,SCT,FEW,0.00,WeatherDisplay:10.37,2013-10-13 06:22:00,
2013-10-13 01:27:00,62.1,61.5,30.14,SSE,154,0.0,0.0,98,0.00,SCT,FEW,0.00,WeatherDisplay:10.37,2013-10-13 06:27:00,
2013-10-13 01:32:00,62.1,61.5,30.14,SSE,154,0.0,0.0,98,0.00,SCT,FEW,0.00,WeatherDisplay:10.37,2013-10-13 06:32:00,
2013-10-13 01:37:00,62.1,61.5,30.14,SSE,154,0.0,0.0,98,0.00,SCT,FEW,0.00,WeatherDisplay:10.37,2013-10-13 06:37:00,
2013-10-13 01:42:00,62.2,61.6,30.14,SSE,154,0.0,0.0,98,0.00,SCT,FEW,0.00,WeatherDisplay:10.37,2013-10-13 06:42:00,
2013-10-13 01:47:00,62.2,61.6,30.14,SSE,154,0.0,0.0,98,0.00,SCT,FEW,0.00,WeatherDisplay:10.37,2013-10-13 06:47:00,
2013-10-13 01:52:00,62.3,61.7,30.14,SSE,154,0.0,0.0,98,0.00,SCT,FEW,0.00,WeatherDisplay:10.37,2013-10-13 06:52:00,
2013-10-13 01:57:00,62.4,61.8,30.14,SSE,154,0.0,0.0,98,0.00,SCT,FEW,0.00,WeatherDisplay:10.37,2013-10-13 06:57:00,
2013-10-13 02:03:00,62.4,61.8,30.15,SSE,154,0.0,0.0,98,0.00,SCT,FEW,0.00,WeatherDisplay:10.37,2013-10-13 07:03:00,
2013-10-13 02:08:00,62.5,61.9,30.15,SSE,153,0.0,0.0,98,0.00,SCT,FEW,0.00,WeatherDisplay:10.37,2013-10-13 07:08:00,
2013-10-13 02:13:00,62.5,61.9,30.15,SSE,154,0.0,0.0,98,0.00,SCT,FEW,0.00,WeatherDisplay:10.37,2013-10-13 07:13:00,
2013-10-13 02:18:00,62.5,61.9,30.15,SSE,153,0.0,0.0,98,0.00,SCT,FEW,0.00,WeatherDisplay:10.37,2013-10-13 07:18:00,
2013-10-13 02:23:00,62.6,62.0,30.15,SSE,154,0.0,0.0,98,0.00,OVC,FEW,0.00,WeatherDisplay:10.37,2013-10-13 07:23:00,
2013-10-13 02:28:00,62.6,62.0,30.15,SSE,154,0.0,0.0,98,0.00,OVC,FEW,0.00,WeatherDisplay:10.37,2013-10-13 07:28:00,
2013-10-13 02:33:00,62.7,62.1,30.15,SSE,154,0.0,0.0,98,0.00,OVC,FEW,0.00,WeatherDisplay:10.37,2013-10-13 07:33:00,
2013-10-13 02:38:00,62.7,62.1,30.15,SSE,154,0.0,0.0,98,0.00,OVC,FEW,0.00,WeatherDisplay:10.37,2013-10-13 07:38:00,
2013-10-13 02:43:00,62.7,62.1,30.15,SSE,154,0.0,0.0,98,0.00,OVC,FEW,0.00,WeatherDisplay:10.37,2013-10-13 07:43:00,
2013-10-13 02:48:00,62.9,62.3,30.15,SSE,154,0.0,0.0,98,0.00,OVC,FEW,0.00,WeatherDisplay:10.37,2013-10-13 07:48:00,
2013-10-13 02:53:00,62.9,62.3,30.15,SSE,154,0.0,0.0,98,0.00,OVC,FEW,0.00,WeatherDisplay:10.37,2013-10-13 07:53:00,
2013-10-13 02:58:00,63.0,62.4,30.15,SSE,154,0.0,0.0,98,0.00,OVC,FEW,0.00,WeatherDisplay:10.37,2013-10-13 07:58:00,
2013-10-13 03:03:00,63.1,62.5,30.15,SSE,154,0.0,0.0,98,0.00,OVC,FEW,0.00,WeatherDisplay:10.37,2013-10-13 08:03:00,
2013-10-13 03:08:00,63.2,62.6,30.15,SSE,154,0.0,0.0,98,0.00,OVC,FEW,0.00,WeatherDisplay:10.37,2013-10-13 08:08:00,
2013-10-13 03:13:00,63.2,62.6,30.15,SSE,154,0.0,0.0,98,0.00,OVC,FEW,0.00,WeatherDisplay:10.37,2013-10-13 08:13:00,
2013-10-13 03:18:00,63.2,62.6,30.15,SSE,154,0.0,0.0,98,0.00,OVC,FEW,0.00,WeatherDisplay:10.37,2013-10-13 08:18:00,
2013-10-13 03:23:00,63.2,62.6,30.16,SSE,154,0.0,0.0,98,0.00,OVC,FEW,0.00,WeatherDisplay:10.37,2013-10-13 08:23:00,
2013-10-13 03:28:00,63.2,62.6,30.16,SSE,154,0.0,0.0,98,0.00,OVC,FEW,0.00,WeatherDisplay:10.37,2013-10-13 08:28:00,
2013-10-13 03:33:00,63.2,62.6,30.16,SSE,154,0.0,0.0,98,0.00,OVC,FEW,0.00,WeatherDisplay:10.37,2013-10-13 08:33:00,
2013-10-13 03:38:00,63.2,62.6,30.16,SSE,154,0.0,0.0,98,0.00,OVC,FEW,0.00,WeatherDisplay:10.37,2013-10-13 08:38:00,
2013-10-13 03:43:00,63.2,62.6,30.16,SSE,154,0.0,0.0,98,0.00,OVC,FEW,0.00,WeatherDisplay:10.37,2013-10-13 08:43:00,
2013-10-13 03:48:00,63.2,62.6,30.16,SSE,154,0.0,0.0,98,0.00,OVC,FEW,0.00,WeatherDisplay:10.37,2013-10-13 08:48:00,
2013-10-13 03:53:00,63.2,62.6,30.16,SSE,154,0.0,0.0,98,0.00,OVC,FEW,0.00,WeatherDisplay:10.37,2013-10-13 08:53:00,
2013-10-13 03:58:00,63.2,62.6,30.16,SSE,154,0.0,0.0,98,0.00,OVC,FEW,0.00,WeatherDisplay:10.37,2013-10-13 08:58:00,
2013-10-13 04:03:00,63.2,62.6,30.16,SSE,154,0.0,0.0,98,0.00,FEW,,0.00,WeatherDisplay:10.37,2013-10-13 09:03:00,
2013-10-13 04:08:00,63.3,62.7,30.17,SSE,154,0.0,0.0,98,0.00,FEW,,0.00,WeatherDisplay:10.37,2013-10-13 09:08:00,
2013-10-13 04:13:00,63.3,62.7,30.17,SSE,154,0.0,0.0,98,0.00,FEW,,0.00,WeatherDisplay:10.37,2013-10-13 09:13:00,
2013-10-13 04:18:00,63.4,62.8,30.17,SSE,154,0.0,0.0,98,0.00,FEW,,0.00,WeatherDisplay:10.37,2013-10-13 09:18:00,
2013-10-13 04:23:00,63.5,62.9,30.17,SSE,154,0.0,0.0,98,0.00,FEW,,0.00,WeatherDisplay:10.37,2013-10-13 09:23:00,
2013-10-13 04:28:00,63.5,62.9,30.17,SSE,154,0.0,0.0,98,0.00,FEW,,0.00,WeatherDisplay:10.37,2013-10-13 09:28:00,
2013-10-13 04:33:00,63.5,62.9,30.17,SSE,154,0.0,0.0,98,0.00,FEW,,0.00,WeatherDisplay:10.37,2013-10-13 09:33:00,
2013-10-13 04:38:00,63.6,63.0,30.17,SSE,154,0.0,0.0,98,0.00,SCT,FEW,0.00,WeatherDisplay:10.37,2013-10-13 09:38:00,
2013-10-13 04:43:00,63.6,63.0,30.17,SSE,154,0.0,0.0,98,0.00,SCT,FEW,0.00,WeatherDisplay:10.37,2013-10-13 09:43:00,
2013-10-13 04:48:00,63.7,63.1,30.17,SSE,154,0.0,0.0,98,0.00,SCT,FEW,0.00,WeatherDisplay:10.37,2013-10-13 09:48:00,
2013-10-13 04:53:00,63.7,63.1,30.17,SSE,154,0.0,0.0,98,0.00,BKN,FEW,0.00,WeatherDisplay:10.37,2013-10-13 09:53:00,
2013-10-13 04:58:00,63.7,63.1,30.17,SSE,154,0.0,0.0,98,0.00,BKN,FEW,0.00,WeatherDisplay:10.37,2013-10-13 09:58:00,
2013-10-13 05:03:00,63.7,63.1,30.17,SSE,154,0.0,0.0,98,0.00,BKN,FEW,0.00,WeatherDisplay:10.37,2013-10-13 10:03:00,
2013-10-13 05:08:00,63.8,63.2,30.18,SSE,154,0.0,0.0,98,0.00,BKN,FEW,0.00,WeatherDisplay:10.37,2013-10-13 10:08:00,
2013-10-13 05:13:00,64.0,63.4,30.18,SE,144,0.0,0.0,98,0.00,BKN,FEW,0.00,WeatherDisplay:10.37,2013-10-13 10:13:00,
2013-10-13 05:18:00,64.0,63.4,30.18,SE,144,0.0,0.0,98,0.00,BKN,FEW,0.00,WeatherDisplay:10.37,2013-10-13 10:18:00,
2013-10-13 05:23:00,64.1,63.5,30.18,SE,144,0.0,0.0,98,0.00,BKN,FEW,0.00,WeatherDisplay:10.37,2013-10-13 10:23:00,
2013-10-13 05:28:00,64.1,63.8,30.18,WNW,296,0.0,0.0,99,0.00,BKN,FEW,0.00,WeatherDisplay:10.37,2013-10-13 10:28:00,
2013-10-13 05:33:00,64.3,64.0,30.18,NNW,348,0.0,0.0,99,0.00,BKN,FEW,0.00,WeatherDisplay:10.37,2013-10-13 10:33:00,
2013-10-13 05:38:00,64.5,63.9,30.19,North,11,0.0,0.0,98,0.00,BKN,FEW,0.00,WeatherDisplay:10.37,2013-10-13 10:38:00,
2013-10-13 05:43:00,64.6,64.0,30.19,North,355,0.0,0.0,98,0.00,BKN,FEW,0.00,WeatherDisplay:10.37,2013-10-13 10:43:00,
2013-10-13 05:48:00,64.6,64.0,30.19,NW,317,0.0,0.0,98,0.00,BKN,FEW,0.00,WeatherDisplay:10.37,2013-10-13 10:48:00,
2013-10-13 05:53:00,64.7,64.4,30.19,NNW,343,0.0,0.0,99,0.00,BKN,FEW,0.00,WeatherDisplay:10.37,2013-10-13 10:53:00,
2013-10-13 05:58:00,64.7,64.1,30.19,North,355,0.0,0.0,98,0.00,BKN,FEW,0.00,WeatherDisplay:10.37,2013-10-13 10:58:00,
2013-10-13 06:03:00,64.8,64.2,30.19,ENE,63,0.0,0.0,98,0.00,CLR,FEW,0.00,WeatherDisplay:10.37,2013-10-13 11:03:00,
2013-10-13 06:08:00,64.8,64.2,30.19,NNW,342,0.0,0.0,98,0.00,CLR,FEW,0.00,WeatherDisplay:10.37,2013-10-13 11:08:00,
2013-10-13 06:13:00,64.8,64.2,30.20,NNW,342,0.0,0.0,98,0.00,CLR,FEW,0.00,WeatherDisplay:10.37,2013-10-13 11:13:00,
2013-10-13 06:18:00,64.7,64.1,30.20,NNW,342,0.0,0.0,98,0.00,CLR,FEW,0.00,WeatherDisplay:10.37,2013-10-13 11:18:00,
2013-10-13 06:23:00,64.7,64.1,30.20,NNW,342,0.0,0.0,98,0.00,CLR,FEW,0.00,WeatherDisplay:10.37,2013-10-13 11:23:00,
2013-10-13 06:28:00,64.6,64.0,30.20,NNW,337,0.0,0.0,98,0.00,CLR,FEW,0.00,WeatherDisplay:10.37,2013-10-13 11:28:00,
2013-10-13 06:33:00,64.6,64.0,30.20,NNW,337,0.0,0.0,98,0.00,CLR,FEW,0.00,WeatherDisplay:10.37,2013-10-13 11:33:00,
2013-10-13 06:38:00,64.5,63.9,30.20,NNW,337,0.0,0.0,98,0.00,CLR,FEW,0.00,WeatherDisplay:10.37,2013-10-13 11:38:00,
2013-10-13 06:43:00,64.5,63.9,30.20,NNW,339,0.0,0.0,98,0.00,CLR,FEW,0.00,WeatherDisplay:10.37,2013-10-13 11:43:00,
2013-10-13 06:48:00,64.4,63.8,30.20,NNW,328,0.0,0.0,98,0.00,CLR,FEW,0.00,WeatherDisplay:10.37,2013-10-13 11:48:00,
2013-10-13 06:53:00,64.3,63.7,30.20,NNW,328,0.0,0.0,98,0.00,CLR,FEW,0.00,WeatherDisplay:10.37,2013-10-13 11:53:00,
2013-10-13 06:58:00,64.3,63.7,30.21,NNW,330,0.0,0.0,98,0.00,CLR,FEW,0.00,WeatherDisplay:10.37,2013-10-13 11:58:00,
2013-10-13 07:03:00,64.2,63.6,30.20,NNW,330,0.0,0.0,98,0.00,FEW,,0.00,WeatherDisplay:10.37,2013-10-13 12:03:00,
2013-10-13 07:08:00,64.1,63.5,30.21,NW,311,0.0,0.0,98,0.00,FEW,,0.00,WeatherDisplay:10.37,2013-10-13 12:08:00,
2013-10-13 07:13:00,64.1,63.5,30.21,NW,311,0.0,0.0,98,0.00,FEW,,0.00,WeatherDisplay:10.37,2013-10-13 12:13:00,
2013-10-13 07:18:00,64.0,63.4,30.21,NW,311,0.0,0.0,98,0.00,FEW,,0.00,WeatherDisplay:10.37,2013-10-13 12:18:00,
2013-10-13 07:23:00,64.0,63.4,30.21,ENE,67,0.0,0.0,98,0.00,FEW,,0.00,WeatherDisplay:10.37,2013-10-13 12:23:00,
2013-10-13 07:28:00,64.0,63.4,30.21,ENE,67,0.0,0.0,98,0.00,FEW,,0.00,WeatherDisplay:10.37,2013-10-13 12:28:00,
2013-10-13 07:33:00,64.1,63.5,30.21,ENE,67,0.0,0.0,98,0.00,FEW,,0.00,WeatherDisplay:10.37,2013-10-13 12:33:00,
2013-10-13 07:38:00,64.3,63.7,30.21,ENE,67,0.0,0.0,98,0.00,BKN,FEW,0.00,WeatherDisplay:10.37,2013-10-13 12:38:00,
2013-10-13 07:43:00,64.3,63.7,30.22,ENE,67,0.0,0.0,98,0.00,BKN,FEW,0.00,WeatherDisplay:10.37,2013-10-13 12:43:00,
2013-10-13 07:49:00,64.4,63.8,30.22,ENE,67,0.0,0.0,98,0.00,BKN,FEW,0.00,WeatherDisplay:10.37,2013-10-13 12:49:00,
2013-10-13 07:54:00,64.5,63.9,30.22,ENE,67,0.0,0.0,98,0.00,OVC,FEW,0.00,WeatherDisplay:10.37,2013-10-13 12:54:00,
2013-10-13 07:59:00,64.6,64.0,30.23,NE,54,0.0,0.0,98,0.00,OVC,FEW,0.00,WeatherDisplay:10.37,2013-10-13 12:59:00,
2013-10-13 08:04:00,64.6,64.0,30.23,NNE,14,0.0,0.0,98,0.00,OVC,FEW,0.00,WeatherDisplay:10.37,2013-10-13 13:04:00,
2013-10-13 08:09:00,64.6,64.0,30.23,North,360,0.0,0.0,98,0.00,OVC,FEW,0.00,WeatherDisplay:10.37,2013-10-13 13:09:00,
2013-10-13 08:14:00,64.6,63.7,30.24,NW,307,0.0,0.0,97,0.00,OVC,FEW,0.00,WeatherDisplay:10.37,2013-10-13 13:14:00,
2013-10-13 08:19:00,64.7,63.8,30.24,NW,323,0.0,0.0,97,0.00,OVC,FEW,0.00,WeatherDisplay:10.37,2013-10-13 13:19:00,
2013-10-13 08:24:00,64.7,63.8,30.24,NW,323,0.0,0.0,97,0.00,OVC,FEW,0.00,WeatherDisplay:10.37,2013-10-13 13:24:00,
2013-10-13 08:29:00,64.7,63.8,30.24,NNW,344,0.0,0.0,97,0.00,OVC,FEW,0.00,WeatherDisplay:10.37,2013-10-13 13:29:00,
2013-10-13 08:34:00,64.7,63.5,30.25,NNW,338,0.0,0.0,96,0.00,OVC,FEW,0.00,WeatherDisplay:10.37,2013-10-13 13:34:00,
2013-10-13 08:39:00,64.8,63.6,30.25,WNW,285,0.0,0.0,96,0.00,SCT,FEW,0.00,WeatherDisplay:10.37,2013-10-13 13:39:00,
2013-10-13 08:44:00,64.8,63.3,30.25,West,265,0.0,0.0,95,0.00,SCT,FEW,0.00,WeatherDisplay:10.37,2013-10-13 13:44:00,
2013-10-13 08:49:00,64.9,63.4,30.25,North,5,0.0,0.0,95,0.00,SCT,FEW,0.00,WeatherDisplay:10.37,2013-10-13 13:49:00,
2013-10-13 08:54:00,65.1,63.6,30.25,NNW,336,0.0,0.0,95,0.00,SCT,FEW,0.00,WeatherDisplay:10.37,2013-10-13 13:54:00,
2013-10-13 08:59:00,65.4,63.6,30.26,WNW,289,0.0,0.0,94,0.00,SCT,FEW,0.00,WeatherDisplay:10.37,2013-10-13 13:59:00,
2013-10-13 09:04:00,65.6,63.5,30.26,NNE,13,0.0,0.0,93,0.00,OVC,FEW,0.00,WeatherDisplay:10.37,2013-10-13 14:04:00,
2013-10-13 09:09:00,65.7,63.3,30.26,North,5,0.0,0.0,92,0.00,OVC,FEW,0.00,WeatherDisplay:10.37,2013-10-13 14:09:00,
2013-10-13 09:14:00,65.7,63.6,30.26,NW,311,0.0,0.0,93,0.00,OVC,FEW,0.00,WeatherDisplay:10.37,2013-10-13 14:14:00,
2013-10-13 09:19:00,65.8,63.4,30.26,NNW,335,0.0,0.0,92,0.00,OVC,FEW,0.00,WeatherDisplay:10.37,2013-10-13 14:19:00,
2013-10-13 09:24:00,66.0,63.9,30.26,NW,309,0.0,0.0,93,0.00,OVC,FEW,0.00,WeatherDisplay:10.37,2013-10-13 14:24:00,
2013-10-13 09:29:00,66.5,64.1,30.26,NNE,12,0.0,0.0,92,0.00,OVC,FEW,0.00,WeatherDisplay:10.37,2013-10-13 14:29:00,
2013-10-13 09:34:00,66.9,64.5,30.26,NE,34,0.0,0.0,92,0.00,OVC,FEW,0.00,WeatherDisplay:10.37,2013-10-13 14:34:00,
2013-10-13 09:39:00,67.5,64.8,30.26,WNW,289,0.0,0.0,91,0.00,OVC,FEW,0.00,WeatherDisplay:10.37,2013-10-13 14:39:00,
2013-10-13 09:44:00,67.8,64.4,30.26,NNW,337,0.0,0.0,89,0.00,OVC,FEW,0.00,WeatherDisplay:10.37,2013-10-13 14:44:00,
2013-10-13 09:49:00,67.8,64.4,30.26,North,355,0.0,0.0,89,0.00,OVC,FEW,0.00,WeatherDisplay:10.37,2013-10-13 14:49:00,
2013-10-13 09:54:00,68.0,64.6,30.26,North,360,0.0,0.0,89,0.00,OVC,FEW,0.00,WeatherDisplay:10.37,2013-10-13 14:54:00,
2013-10-13 09:59:00,68.3,64.6,30.26,WNW,296,0.0,0.0,88,0.00,OVC,FEW,0.00,WeatherDisplay:10.37,2013-10-13 14:59:00,
2013-10-13 10:04:00,68.2,64.2,30.26,NNW,345,0.0,0.0,87,0.00,OVC,FEW,0.00,WeatherDisplay:10.37,2013-10-13 15:04:00,
2013-10-13 10:09:00,68.2,64.5,30.27,North,5,0.0,0.0,88,0.00,OVC,FEW,0.00,WeatherDisplay:10.37,2013-10-13 15:09:00,
2013-10-13 10:14:00,68.3,64.6,30.27,NNW,342,0.0,0.0,88,0.00,OVC,FEW,0.00,WeatherDisplay:10.37,2013-10-13 15:14:00,
2013-10-13 10:19:00,68.3,64.3,30.27,NW,325,0.0,0.0,87,0.00,OVC,FEW,0.00,WeatherDisplay:10.37,2013-10-13 15:19:00,
2013-10-13 10:24:00,68.4,64.7,30.27,NNW,339,0.0,0.0,88,0.00,OVC,FEW,0.00,WeatherDisplay:10.37,2013-10-13 15:24:00,
2013-10-13 10:29:00,68.5,64.8,30.27,NW,323,0.0,0.0,88,0.00,OVC,FEW,0.00,WeatherDisplay:10.37,2013-10-13 15:29:00,
2013-10-13 10:34:00,68.6,64.6,30.27,NNE,12,0.0,0.0,87,0.00,OVC,FEW,0.00,WeatherDisplay:10.37,2013-10-13 15:34:00,
2013-10-13 10:39:00,68.7,64.7,30.27,NW,323,0.0,0.0,87,0.00,OVC,FEW,0.00,WeatherDisplay:10.37,2013-10-13 15:39:00,
2013-10-13 10:44:00,69.0,64.6,30.27,NW,320,0.0,0.0,86,0.00,OVC,FEW,0.00,WeatherDisplay:10.37,2013-10-13 15:44:00,
2013-10-13 10:49:00,69.2,64.8,30.27,NNW,335,0.0,0.0,86,0.00,OVC,FEW,0.00,WeatherDisplay:10.37,2013-10-13 15:49:00,
2013-10-13 10:54:00,69.5,64.8,30.27,WNW,294,0.0,0.0,85,0.00,OVC,FEW,0.00,WeatherDisplay:10.37,2013-10-13 15:54:00,
2013-10-13 10:59:00,69.6,64.5,30.27,WNW,292,0.0,0.0,84,0.00,OVC,FEW,0.00,WeatherDisplay:10.37,2013-10-13 15:59:00,
2013-10-13 11:04:00,69.7,64.3,30.27,North,355,0.0,0.0,83,0.00,FEW,,0.00,WeatherDisplay:10.37,2013-10-13 16:04:00,
2013-10-13 11:09:00,69.6,64.5,30.27,North,5,0.0,0.0,84,0.00,FEW,,0.00,WeatherDisplay:10.37,2013-10-13 16:09:00,
2013-10-13 11:14:00,69.8,64.7,30.27,NNW,333,0.0,0.0,84,0.00,FEW,,0.00,WeatherDisplay:10.37,2013-10-13 16:14:00,
2013-10-13 11:19:00,70.2,64.8,30.27,NNW,336,0.0,0.0,83,0.00,FEW,,0.00,WeatherDisplay:10.37,2013-10-13 16:19:00,
2013-10-13 11:24:00,70.7,65.3,30.27,ENE,73,0.0,0.0,83,0.00,FEW,,0.00,WeatherDisplay:10.37,2013-10-13 16:24:00,
2013-10-13 11:29:00,71.1,65.7,30.27,NW,308,0.0,0.0,83,0.00,FEW,,0.00,WeatherDisplay:10.37,2013-10-13 16:29:00,
2013-10-13 11:34:00,71.5,66.1,30.26,WNW,284,0.0,0.0,83,0.00,FEW,,0.00,WeatherDisplay:10.37,2013-10-13 16:34:00,
2013-10-13 11:39:00,72.0,65.5,30.26,NE,53,0.0,0.0,80,0.00,FEW,,0.00,WeatherDisplay:10.37,2013-10-13 16:39:00,
2013-10-13 11:44:00,72.4,66.2,30.26,NNW,337,0.0,0.0,81,0.00,FEW,,0.00,WeatherDisplay:10.37,2013-10-13 16:44:00,
2013-10-13 11:49:00,72.9,65.6,30.26,West,267,0.0,0.0,78,0.00,FEW,,0.00,WeatherDisplay:10.37,2013-10-13 16:49:00,
2013-10-13 11:54:00,73.4,66.1,30.26,NW,305,0.0,0.0,78,0.00,FEW,,0.00,WeatherDisplay:10.37,2013-10-13 16:54:00,
2013-10-13 11:59:00,73.8,66.9,30.26,NE,34,0.0,0.0,79,0.00,FEW,,0.00,WeatherDisplay:10.37,2013-10-13 16:59:00,
2013-10-13 12:04:00,74.3,66.2,30.26,NE,44,0.0,0.0,76,0.00,FEW,,0.00,WeatherDisplay:10.37,2013-10-13 17:04:00,
2013-10-13 12:09:00,74.6,66.5,30.26,WNW,284,0.0,0.0,76,0.00,FEW,,0.00,WeatherDisplay:10.37,2013-10-13 17:09:00,
2013-10-13 12:14:00,74.7,67.0,30.26,NNW,347,0.0,0.0,77,0.00,FEW,,0.00,WeatherDisplay:10.37,2013-10-13 17:14:00,
2013-10-13 12:19:00,74.8,66.3,30.26,NW,307,0.0,0.0,75,0.00,FEW,,0.00,WeatherDisplay:10.37,2013-10-13 17:19:00,
2013-10-13 12:24:00,75.0,66.1,30.25,WNW,300,0.0,0.0,74,0.00,FEW,,0.00,WeatherDisplay:10.37,2013-10-13 17:24:00,
2013-10-13 12:29:00,75.3,66.4,30.25,NNW,346,0.0,0.0,74,0.00,FEW,,0.00,WeatherDisplay:10.37,2013-10-13 17:29:00,
2013-10-13 12:34:00,75.5,66.6,30.25,ENE,74,0.0,0.0,74,0.00,FEW,,0.00,WeatherDisplay:10.37,2013-10-13 17:34:00,
2013-10-13 12:39:00,75.6,67.5,30.25,NW,319,0.0,0.0,76,0.00,FEW,,0.00,WeatherDisplay:10.37,2013-10-13 17:39:00,
2013-10-13 12:44:00,76.0,67.1,30.25,West,275,0.0,0.0,74,0.00,FEW,,0.00,WeatherDisplay:10.37,2013-10-13 17:44:00,
2013-10-13 12:49:00,76.2,66.9,30.24,NW,323,0.0,0.0,73,0.00,FEW,,0.00,WeatherDisplay:10.37,2013-10-13 17:49:00,
2013-10-13 12:54:00,76.2,67.7,30.24,North,355,0.0,0.0,75,0.00,FEW,,0.00,WeatherDisplay:10.37,2013-10-13 17:54:00,
2013-10-13 12:59:00,76.4,67.1,30.24,NNE,22,0.0,0.0,73,0.00,FEW,,0.00,WeatherDisplay:10.37,2013-10-13 17:59:00,
2013-10-13 13:05:00,76.8,67.5,30.24,WNW,300,0.0,0.0,73,0.00,SCT,FEW,0.00,WeatherDisplay:10.37,2013-10-13 18:05:00,
2013-10-13 13:10:00,77.1,67.4,30.23,NW,323,0.0,0.0,72,0.00,SCT,FEW,0.00,WeatherDisplay:10.37,2013-10-13 18:10:00,
2013-10-13 13:15:00,77.1,67.4,30.23,NNE,28,0.0,0.1,72,0.00,SCT,FEW,0.00,WeatherDisplay:10.37,2013-10-13 18:15:00,
2013-10-13 13:20:00,76.7,66.2,30.23,NNE,33,0.0,0.0,70,0.00,SCT,FEW,0.00,WeatherDisplay:10.37,2013-10-13 18:20:00,
2013-10-13 13:25:00,76.3,66.2,30.23,NNW,344,1.2,0.0,71,0.00,BKN,FEW,0.00,WeatherDisplay:10.37,2013-10-13 18:25:00,
2013-10-13 13:30:00,76.4,66.3,30.23,ENE,57,0.0,0.0,71,0.00,BKN,FEW,0.00,WeatherDisplay:10.37,2013-10-13 18:30:00,
2013-10-13 13:35:00,76.5,66.4,30.23,NNW,327,0.0,0.0,71,0.00,BKN,FEW,0.00,WeatherDisplay:10.37,2013-10-13 18:35:00,
2013-10-13 13:40:00,76.5,66.4,30.23,East,88,0.0,0.0,71,0.00,BKN,FEW,0.00,WeatherDisplay:10.37,2013-10-13 18:40:00,
2013-10-13 13:45:00,76.3,66.6,30.22,NE,42,0.0,0.0,72,0.00,BKN,FEW,0.00,WeatherDisplay:10.37,2013-10-13 18:45:00,
2013-10-13 13:50:00,76.4,67.1,30.22,NW,315,0.0,0.0,73,0.00,BKN,FEW,0.00,WeatherDisplay:10.37,2013-10-13 18:50:00,
2013-10-13 13:55:00,76.8,67.1,30.22,NNW,338,0.0,0.0,72,0.00,BKN,FEW,0.00,WeatherDisplay:10.37,2013-10-13 18:55:00,
2013-10-13 14:00:00,76.9,66.4,30.22,NNE,30,0.0,0.0,70,0.00,BKN,FEW,0.00,WeatherDisplay:10.37,2013-10-13 19:00:00,
2013-10-13 14:05:00,76.5,65.6,30.22,NNE,22,0.0,0.0,69,0.00,SCT,FEW,0.00,WeatherDisplay:10.37,2013-10-13 19:05:00,
2013-10-13 14:10:00,76.0,65.9,30.22,NW,314,0.0,0.0,71,0.00,SCT,FEW,0.00,WeatherDisplay:10.37,2013-10-13 19:10:00,
2013-10-13 14:15:00,76.1,66.4,30.22,North,5,0.0,0.0,72,0.00,SCT,FEW,0.00,WeatherDisplay:10.37,2013-10-13 19:15:00,
2013-10-13 14:20:00,76.5,66.4,30.22,North,5,1.2,1.2,71,0.00,SCT,FEW,0.00,WeatherDisplay:10.37,2013-10-13 19:20:00,
2013-10-13 14:25:00,76.4,65.9,30.22,NNW,333,0.0,0.0,70,0.00,SCT,FEW,0.00,WeatherDisplay:10.37,2013-10-13 19:25:00,
2013-10-13 14:30:00,76.5,66.0,30.21,NW,326,0.0,0.0,70,0.00,SCT,FEW,0.00,WeatherDisplay:10.37,2013-10-13 19:30:00,
2013-10-13 14:35:00,76.8,67.1,30.21,North,355,0.0,0.0,72,0.00,SCT,FEW,0.00,WeatherDisplay:10.37,2013-10-13 19:35:00,
2013-10-13 14:40:00,77.0,66.9,30.21,NNW,327,0.0,0.0,71,0.00,SCT,FEW,0.00,WeatherDisplay:10.37,2013-10-13 19:40:00,
2013-10-13 14:45:00,77.2,66.7,30.21,NNE,26,0.0,0.0,70,0.00,SCT,FEW,0.00,WeatherDisplay:10.37,2013-10-13 19:45:00,
2013-10-13 14:50:00,77.4,66.8,30.21,West,264,1.2,0.0,70,0.00,SCT,FEW,0.00,WeatherDisplay:10.37,2013-10-13 19:50:00,
2013-10-13 14:55:00,77.1,66.6,30.21,NW,310,0.0,0.0,70,0.00,SCT,FEW,0.00,WeatherDisplay:10.37,2013-10-13 19:55:00,
2013-10-13 15:00:00,77.2,67.5,30.20,NW,317,0.0,0.0,72,0.00,SCT,FEW,0.00,WeatherDisplay:10.37,2013-10-13 20:00:00,
2013-10-13 15:05:00,77.6,66.6,30.20,NNW,348,1.1,1.1,69,0.00,CLR,FEW,0.00,WeatherDisplay:10.37,2013-10-13 20:05:00,
2013-10-13 15:10:00,77.8,66.4,30.20,NW,311,0.0,0.0,68,0.00,CLR,FEW,0.00,WeatherDisplay:10.37,2013-10-13 20:10:00,
2013-10-13 15:15:00,77.6,66.6,30.20,WNW,294,0.0,0.0,69,0.00,CLR,FEW,0.00,WeatherDisplay:10.37,2013-10-13 20:15:00,
2013-10-13 15:20:00,77.6,66.6,30.20,WNW,302,0.0,0.0,69,0.00,CLR,FEW,0.00,WeatherDisplay:10.37,2013-10-13 20:20:00,
2013-10-13 15:25:00,77.6,66.6,30.20,NNE,28,0.0,0.0,69,0.00,CLR,FEW,0.00,WeatherDisplay:10.37,2013-10-13 20:25:00,
2013-10-13 15:30:00,77.3,65.5,30.20,NNE,26,0.0,0.1,67,0.00,CLR,FEW,0.00,WeatherDisplay:10.37,2013-10-13 20:30:00,
2013-10-13 15:35:00,76.8,65.4,30.20,NW,315,0.0,0.0,68,0.00,CLR,FEW,0.00,WeatherDisplay:10.37,2013-10-13 20:35:00,
2013-10-13 15:40:00,76.6,66.1,30.20,West,281,0.0,0.0,70,0.00,CLR,FEW,0.00,WeatherDisplay:10.37,2013-10-13 20:40:00,
2013-10-13 15:45:00,77.0,66.0,30.20,NW,325,0.0,0.0,69,0.00,CLR,FEW,0.00,WeatherDisplay:10.37,2013-10-13 20:45:00,
2013-10-13 15:50:00,77.4,66.0,30.20,NNE,32,5.3,5.3,68,0.00,CLR,FEW,0.00,WeatherDisplay:10.37,2013-10-13 20:50:00,
2013-10-13 15:55:00,77.5,64.8,30.20,NNE,22,8.1,8.1,65,0.00,CLR,FEW,0.00,WeatherDisplay:10.37,2013-10-13 20:55:00,
2013-10-13 16:00:00,77.5,65.7,30.20,NW,320,4.6,4.6,67,0.00,CLR,FEW,0.00,WeatherDisplay:10.37,2013-10-13 21:00:00,
2013-10-13 16:05:00,77.4,65.1,30.20,North,360,5.8,5.8,66,0.00,CLR,FEW,0.00,WeatherDisplay:10.37,2013-10-13 21:05:00,
2013-10-13 16:11:00,77.4,65.1,30.20,NNE,33,4.6,4.6,66,0.00,CLR,FEW,0.00,WeatherDisplay:10.37,2013-10-13 21:11:00,
2013-10-13 16:16:00,77.3,64.6,30.20,NNE,24,6.9,6.9,65,0.00,CLR,FEW,0.00,WeatherDisplay:10.37,2013-10-13 21:16:00,
2013-10-13 16:21:00,77.3,64.6,30.20,NW,306,2.3,2.3,65,0.00,CLR,FEW,0.00,WeatherDisplay:10.37,2013-10-13 21:21:00,
2013-10-13 16:26:00,77.2,65.0,30.20,WNW,298,4.6,4.6,66,0.00,CLR,FEW,0.00,WeatherDisplay:10.37,2013-10-13 21:26:00,
2013-10-13 16:31:00,77.0,64.8,30.20,NNW,341,8.1,8.1,66,0.00,CLR,FEW,0.00,WeatherDisplay:10.37,2013-10-13 21:31:00,
2013-10-13 16:36:00,76.9,65.1,30.19,NNW,335,1.2,1.2,67,0.00,CLR,FEW,0.00,WeatherDisplay:10.37,2013-10-13 21:36:00,
2013-10-13 16:41:00,77.0,65.6,30.19,NNW,345,4.6,4.6,68,0.00,CLR,FEW,0.00,WeatherDisplay:10.37,2013-10-13 21:41:00,
2013-10-13 16:46:00,76.7,64.5,30.19,North,355,4.6,4.6,66,0.00,CLR,FEW,0.00,WeatherDisplay:10.37,2013-10-13 21:46:00,
2013-10-13 16:51:00,76.4,64.6,30.19,NW,309,8.1,8.1,67,0.00,CLR,FEW,0.00,WeatherDisplay:10.37,2013-10-13 21:51:00,
2013-10-13 16:56:00,76.1,64.8,30.19,WNW,300,1.2,1.2,68,0.00,CLR,FEW,0.00,WeatherDisplay:10.37,2013-10-13 21:56:00,
2013-10-13 17:01:00,75.9,65.0,30.19,NE,36,1.2,0.0,69,0.00,CLR,FEW,0.00,WeatherDisplay:10.37,2013-10-13 22:01:00,
2013-10-13 17:06:00,75.6,64.7,30.19,NW,320,0.0,0.0,69,0.00,CLR,FEW,0.00,WeatherDisplay:10.37,2013-10-13 22:06:00,
2013-10-13 17:11:00,75.3,64.4,30.20,West,280,2.3,2.3,69,0.00,CLR,FEW,0.00,WeatherDisplay:10.37,2013-10-13 22:11:00,
2013-10-13 17:16:00,74.9,64.5,30.20,NNE,26,5.8,5.8,70,0.00,CLR,FEW,0.00,WeatherDisplay:10.37,2013-10-13 22:16:00,
2013-10-13 17:21:00,74.6,63.8,30.20,WNW,293,1.1,1.1,69,0.00,CLR,FEW,0.00,WeatherDisplay:10.37,2013-10-13 22:21:00,
2013-10-13 17:26:00,74.4,64.4,30.20,NNW,336,3.5,3.5,71,0.00,CLR,FEW,0.00,WeatherDisplay:10.37,2013-10-13 22:26:00,
2013-10-13 17:31:00,74.1,64.1,30.20,NW,319,0.0,0.0,71,0.00,CLR,FEW,0.00,WeatherDisplay:10.37,2013-10-13 22:31:00,
2013-10-13 17:36:00,73.9,63.9,30.20,NNW,338,4.6,4.6,71,0.00,CLR,FEW,0.00,WeatherDisplay:10.37,2013-10-13 22:36:00,
2013-10-13 17:41:00,73.6,63.6,30.20,WNW,297,4.6,4.6,71,0.00,CLR,FEW,0.00,WeatherDisplay:10.37,2013-10-13 22:41:00,
2013-10-13 17:46:00,73.3,63.7,30.20,North,360,3.5,3.5,72,0.00,CLR,FEW,0.00,WeatherDisplay:10.37,2013-10-13 22:46:00,
2013-10-13 17:51:00,73.1,63.1,30.20,NNW,338,4.6,4.6,71,0.00,CLR,FEW,0.00,WeatherDisplay:10.37,2013-10-13 22:51:00,
2013-10-13 17:56:00,72.8,63.6,30.21,NW,314,0.0,0.0,73,0.00,CLR,FEW,0.00,WeatherDisplay:10.37,2013-10-13 22:56:00,
2013-10-13 18:01:00,72.4,63.3,30.21,North,349,0.0,0.0,73,0.00,CLR,FEW,0.00,WeatherDisplay:10.37,2013-10-13 23:01:00,
2013-10-13 18:06:00,72.0,63.6,30.21,NNW,330,0.0,0.0,75,0.00,CLR,FEW,0.00,WeatherDisplay:10.37,2013-10-13 23:06:00,
2013-10-13 18:11:00,71.6,63.3,30.22,NW,317,0.0,0.0,75,0.00,CLR,FEW,0.00,WeatherDisplay:10.37,2013-10-13 23:11:00,
2013-10-13 18:16:00,71.1,63.5,30.22,NW,321,0.0,0.0,77,0.00,CLR,FEW,0.00,WeatherDisplay:10.37,2013-10-13 23:16:00,
2013-10-13 18:21:00,70.6,63.4,30.22,NW,321,0.0,0.0,78,0.00,CLR,FEW,0.00,WeatherDisplay:10.37,2013-10-13 23:21:00,
2013-10-13 18:26:00,70.0,63.2,30.22,NW,321,0.0,0.0,79,0.00,CLR,FEW,0.00,WeatherDisplay:10.37,2013-10-13 23:26:00,
2013-10-13 18:31:00,69.4,63.3,30.23,NW,321,0.0,0.0,81,0.00,CLR,FEW,0.00,WeatherDisplay:10.37,2013-10-13 23:31:00,
2013-10-13 18:36:00,68.7,63.0,30.23,NW,321,0.0,0.0,82,0.00,CLR,FEW,0.00,WeatherDisplay:10.37,2013-10-13 23:36:00,
2013-10-13 18:41:00,68.1,62.7,30.23,NW,321,0.0,0.0,83,0.00,CLR,FEW,0.00,WeatherDisplay:10.37,2013-10-13 23:41:00,
2013-10-13 18:46:00,67.5,62.5,30.23,NW,321,0.0,0.0,84,0.00,CLR,FEW,0.00,WeatherDisplay:10.37,2013-10-13 23:46:00,
2013-10-13 18:51:00,67.1,62.1,30.23,NW,321,0.0,0.0,84,0.00,CLR,FEW,0.00,WeatherDisplay:10.37,2013-10-13 23:51:00,
2013-10-13 18:56:00,66.7,61.7,30.23,NW,321,0.0,0.0,84,0.00,CLR,FEW,0.00,WeatherDisplay:10.37,2013-10-13 23:56:00,
2013-10-13 19:01:00,66.5,61.8,30.23,NW,321,0.0,0.0,85,0.00,CLR,FEW,0.00,WeatherDisplay:10.37,2013-10-14 00:01:00,
2013-10-13 19:06:00,66.1,61.8,30.23,NW,321,0.0,0.0,86,0.00,CLR,FEW,0.00,WeatherDisplay:10.37,2013-10-14 00:06:00,
2013-10-13 19:11:00,65.9,61.9,30.23,NW,321,0.0,0.0,87,0.00,CLR,FEW,0.00,WeatherDisplay:10.37,2013-10-14 00:11:00,
2013-10-13 19:16:00,65.8,61.8,30.23,NW,321,0.0,0.0,87,0.00,CLR,FEW,0.00,WeatherDisplay:10.37,2013-10-14 00:16:00,
2013-10-13 19:21:00,65.6,61.6,30.24,NW,321,0.0,0.0,87,0.00,CLR,FEW,0.00,WeatherDisplay:10.37,2013-10-14 00:21:00,
2013-10-13 19:26:00,65.4,61.4,30.24,NW,321,0.0,0.0,87,0.00,CLR,FEW,0.00,WeatherDisplay:10.37,2013-10-14 00:26:00,
2013-10-13 19:31:00,65.2,61.6,30.24,NW,321,0.0,0.0,88,0.00,CLR,FEW,0.00,WeatherDisplay:10.37,2013-10-14 00:31:00,
2013-10-13 19:36:00,65.0,61.0,30.24,NW,321,0.0,0.0,87,0.00,CLR,FEW,0.00,WeatherDisplay:10.37,2013-10-14 00:36:00,
2013-10-13 19:41:00,64.8,60.8,30.24,NW,321,0.0,0.0,87,0.00,CLR,FEW,0.00,WeatherDisplay:10.37,2013-10-14 00:41:00,
2013-10-13 19:46:00,64.4,60.8,30.24,NW,321,0.0,0.0,88,0.00,CLR,FEW,0.00,WeatherDisplay:10.37,2013-10-14 00:46:00,
2013-10-13 19:51:00,64.1,59.8,30.24,NW,321,0.0,0.0,86,0.00,CLR,FEW,0.00,WeatherDisplay:10.37,2013-10-14 00:51:00,
2013-10-13 19:56:00,64.1,60.2,30.24,NW,321,0.0,0.0,87,0.00,CLR,FEW,0.00,WeatherDisplay:10.37,2013-10-14 00:56:00,
2013-10-13 20:01:00,63.9,59.6,30.25,NW,321,0.0,0.0,86,0.00,CLR,FEW,0.00,WeatherDisplay:10.37,2013-10-14 01:01:00,
2013-10-13 20:06:00,63.8,59.5,30.25,NW,321,0.0,0.0,86,0.00,CLR,FEW,0.00,WeatherDisplay:10.37,2013-10-14 01:06:00,
2013-10-13 20:11:00,63.6,58.7,30.25,NW,321,0.0,0.0,84,0.00,CLR,FEW,0.00,WeatherDisplay:10.37,2013-10-14 01:11:00,
2013-10-13 20:16:00,63.5,58.6,30.25,NNE,16,0.0,0.0,84,0.00,CLR,FEW,0.00,WeatherDisplay:10.37,2013-10-14 01:16:00,
2013-10-13 20:21:00,63.4,59.1,30.25,NNE,16,0.0,0.0,86,0.00,CLR,FEW,0.00,WeatherDisplay:10.37,2013-10-14 01:21:00,
2013-10-13 20:26:00,63.2,58.6,30.25,NNE,17,0.0,0.0,85,0.00,CLR,FEW,0.00,WeatherDisplay:10.37,2013-10-14 01:26:00,
2013-10-13 20:31:00,63.1,57.9,30.26,NNE,17,0.0,0.0,83,0.00,CLR,FEW,0.00,WeatherDisplay:10.37,2013-10-14 01:31:00,
2013-10-13 20:36:00,63.0,58.1,30.26,NNE,17,0.0,0.0,84,0.00,CLR,FEW,0.00,WeatherDisplay:10.37,2013-10-14 01:36:00,
2013-10-13 20:41:00,62.8,57.9,30.25,NNE,17,0.0,0.0,84,0.00,CLR,FEW,0.00,WeatherDisplay:10.37,2013-10-14 01:41:00,
2013-10-13 20:46:00,62.5,57.6,30.25,NNE,17,0.0,0.0,84,0.00,CLR,FEW,0.00,WeatherDisplay:10.37,2013-10-14 01:46:00,
2013-10-13 20:52:00,62.3,57.4,30.26,NNE,17,0.0,0.0,84,0.00,CLR,FEW,0.00,WeatherDisplay:10.37,2013-10-14 01:52:00,
2013-10-13 20:57:00,62.0,57.1,30.26,NNE,17,0.0,0.0,84,0.00,CLR,FEW,0.00,WeatherDisplay:10.37,2013-10-14 01:57:00,
2013-10-13 21:02:00,61.7,56.8,30.26,NNE,17,0.0,0.0,84,0.00,CLR,FEW,0.00,WeatherDisplay:10.37,2013-10-14 02:02:00,
2013-10-13 21:07:00,61.6,57.0,30.26,NNE,28,0.0,0.0,85,0.00,CLR,FEW,0.00,WeatherDisplay:10.37,2013-10-14 02:07:00,
2013-10-13 21:12:00,61.4,56.5,30.26,NNE,28,0.0,0.0,84,0.00,CLR,FEW,0.00,WeatherDisplay:10.37,2013-10-14 02:12:00,
2013-10-13 21:17:00,61.2,56.3,30.26,NNE,29,0.0,0.0,84,0.00,CLR,FEW,0.00,WeatherDisplay:10.37,2013-10-14 02:17:00,
2013-10-13 21:22:00,61.1,56.6,30.25,NE,44,0.0,0.0,85,0.00,CLR,FEW,0.00,WeatherDisplay:10.37,2013-10-14 02:22:00,
2013-10-13 21:27:00,61.0,56.1,30.25,NE,44,0.0,0.0,84,0.00,CLR,FEW,0.00,WeatherDisplay:10.37,2013-10-14 02:27:00,
2013-10-13 21:32:00,60.8,56.3,30.26,WNW,290,0.0,0.0,85,0.00,CLR,FEW,0.00,WeatherDisplay:10.37,2013-10-14 02:32:00,
2013-10-13 21:37:00,60.6,55.7,30.26,WNW,290,0.0,0.0,84,0.00,CLR,FEW,0.00,WeatherDisplay:10.37,2013-10-14 02:37:00,
2013-10-13 21:42:00,60.5,55.6,30.26,WNW,290,0.0,0.0,84,0.00,CLR,FEW,0.00,WeatherDisplay:10.37,2013-10-14 02:42:00,
2013-10-13 21:47:00,60.3,55.4,30.26,WNW,290,0.0,0.0,84,0.00,CLR,FEW,0.00,WeatherDisplay:10.37,2013-10-14 02:47:00,
2013-10-13 21:52:00,60.2,55.3,30.26,WNW,290,0.0,0.0,84,0.00,CLR,FEW,0.00,WeatherDisplay:10.37,2013-10-14 02:52:00,
2013-10-13 21:57:00,60.0,55.5,30.26,WNW,290,0.0,0.0,85,0.00,CLR,FEW,0.00,WeatherDisplay:10.37,2013-10-14 02:57:00,
2013-10-13 22:02:00,59.9,55.1,30.26,WNW,290,0.0,0.0,84,0.00,CLR,FEW,0.00,WeatherDisplay:10.37,2013-10-14 03:02:00,
2013-10-13 22:07:00,59.8,54.6,30.26,WNW,290,0.0,0.0,83,0.00,CLR,FEW,0.00,WeatherDisplay:10.37,2013-10-14 03:07:00,
2013-10-13 22:12:00,59.7,54.5,30.26,WNW,290,0.0,0.0,83,0.00,CLR,FEW,0.00,WeatherDisplay:10.37,2013-10-14 03:12:00,
2013-10-13 22:17:00,59.6,54.4,30.26,WNW,290,0.0,0.0,83,0.00,CLR,FEW,0.00,WeatherDisplay:10.37,2013-10-14 03:17:00,
2013-10-13 22:22:00,59.6,54.4,30.26,WNW,290,0.0,0.0,83,0.00,CLR,FEW,0.00,WeatherDisplay:10.37,2013-10-14 03:22:00,
2013-10-13 22:27:00,59.5,54.0,30.25,NE,50,0.0,0.0,82,0.00,CLR,FEW,0.00,WeatherDisplay:10.37,2013-10-14 03:27:00,
2013-10-13 22:32:00,59.5,54.7,30.25,North,9,0.0,0.0,84,0.00,CLR,FEW,0.00,WeatherDisplay:10.37,2013-10-14 03:32:00,
2013-10-13 22:37:00,59.5,54.3,30.25,North,9,0.0,0.0,83,0.00,CLR,FEW,0.00,WeatherDisplay:10.37,2013-10-14 03:37:00,
2013-10-13 22:42:00,59.4,53.9,30.25,North,355,0.0,0.0,82,0.00,CLR,FEW,0.00,WeatherDisplay:10.37,2013-10-14 03:42:00,
2013-10-13 22:47:00,59.4,54.2,30.25,North,355,0.0,0.0,83,0.00,CLR,FEW,0.00,WeatherDisplay:10.37,2013-10-14 03:47:00,
2013-10-13 22:52:00,59.3,54.1,30.25,North,355,0.0,0.0,83,0.00,CLR,FEW,0.00,WeatherDisplay:10.37,2013-10-14 03:52:00,
2013-10-13 22:57:00,59.0,53.8,30.25,North,355,0.0,0.0,83,0.00,CLR,FEW,0.00,WeatherDisplay:10.37,2013-10-14 03:57:00,
2013-10-13 23:01:00,58.9,54.1,30.25,North,355,0.0,0.0,84,0.00,CLR,FEW,0.00,WeatherDisplay:10.37,2013-10-14 04:01:00,
2013-10-13 23:02:00,58.8,54.0,30.25,North,355,0.0,0.0,84,0.00,CLR,FEW,0.00,WeatherDisplay:10.37,2013-10-14 04:02:00,
2013-10-13 23:07:00,58.6,53.8,30.25,North,355,0.0,0.0,84,0.00,CLR,FEW,0.00,WeatherDisplay:10.37,2013-10-14 04:07:00,
2013-10-13 23:12:00,58.4,53.6,30.24,North,355,0.0,0.0,84,0.00,CLR,FEW,0.00,WeatherDisplay:10.37,2013-10-14 04:12:00,
2013-10-13 23:17:00,58.3,53.8,30.24,North,355,0.0,0.0,85,0.00,CLR,FEW,0.00,WeatherDisplay:10.37,2013-10-14 04:17:00,
2013-10-13 23:22:00,58.2,53.7,30.24,North,355,0.0,0.0,85,0.00,CLR,FEW,0.00,WeatherDisplay:10.37,2013-10-14 04:22:00,
2013-10-13 23:27:00,58.0,53.5,30.24,North,355,0.0,0.0,85,0.00,CLR,FEW,0.00,WeatherDisplay:10.37,2013-10-14 04:27:00,
2013-10-13 23:32:00,57.8,53.6,30.24,North,355,0.0,0.0,86,0.00,CLR,FEW,0.00,WeatherDisplay:10.37,2013-10-14 04:32:00,
2013-10-13 23:37:00,57.7,53.2,30.24,North,355,0.0,0.0,85,0.00,CLR,FEW,0.00,WeatherDisplay:10.37,2013-10-14 04:37:00,
2013-10-13 23:42:00,57.6,53.1,30.24,North,355,0.0,0.0,85,0.00,CLR,FEW,0.00,WeatherDisplay:10.37,2013-10-14 04:42:00,
2013-10-13 23:47:00,57.5,53.3,30.24,NNW,342,0.0,0.0,86,0.00,CLR,FEW,0.00,WeatherDisplay:10.37,2013-10-14 04:47:00,
2013-10-13 23:52:00,57.3,53.1,30.24,NNW,342,0.0,0.0,86,0.00,CLR,FEW,0.00,WeatherDisplay:10.37,2013-10-14 04:52:00,
2013-10-13 23:57:00,57.1,53.0,30.24,NNW,342,0.0,0.0,86,0.00,CLR,FEW,0.00,WeatherDisplay:10.37,2013-10-14 04:57:00,